Lexington Weather

Lexington, Massachusetts, USA

76°F
7/25/2024 11:12am 
  • Lexington Conditions: Mostly cloudy
  • Temperature: 76.3°F / 24.6°CWarmer 1.5°F than last hour.
  • Dew Point: 71.8°F 
  • Relative Humidity: 86%Decreased 4.0% since last hour.
  • Wind: Wind from SW SW 1 mph, 10-min avg: 2 mph, gust: 8 mph
  • Barometer: 29.95 inFalling 0.02  inHg/hr Falling Slowly
  • Visibility: 10 miles
  • Rain Today: 0.00 in
  •   

Regional Weather Roundup
for Boston, MA

        
000
ASUS41 KBOX 221210
RWRBOX

REGIONAL WEATHER ROUNDUP
NATIONAL WEATHER SERVICE BOSTON/NORTON MA
800 AM EDT MON JUL 22 2024

NOTE:  "FAIR" INDICATES FEW OR NO CLOUDS BELOW 12,000 FEET WITH NO 
SIGNIFICANT WEATHER AND/OR OBSTRUCTIONS TO VISIBILITY.

MAZALL-221300-
EASTERN MASSACHUSETTS
  
CITY           SKY/WX    TMP DP  RH WIND       PRES   REMARKS
BOSTON         MOSUNNY   71  61  70 NE3       30.11R                  
6HR MIN TEMP:  63; 6HR MAX TEMP:  72;                                

BEVERLY        SUNNY     70  59  68 CALM      30.10R                  
LAWRENCE       SUNNY     70  58  65 CALM      30.13R                  
BEDFORD        SUNNY     69  60  73 CALM      30.09R                  
NORWOOD        MOSUNNY   75  67  76 VRB3      30.10R                  
MARSHFIELD     MOSUNNY   73  63  68 CALM      30.10R                  
PLYMOUTH       MOSUNNY   74  67  78 NE5       30.09R                  
TAUNTON        MOSUNNY   74  65  73 CALM      30.09R                  
NEW BEDFORD    MOSUNNY   76  69  79 CALM      30.09R                  
$$

MAZALL-221300-
CAPE COD AND THE ISLANDS
  
CITY           SKY/WX    TMP DP  RH WIND       PRES   REMARKS
FALMOUTH       SUNNY     72  68  88 CALM      30.11R                  
HYANNIS        MOSUNNY   75  69  81 E3        30.08R                  
CHATHAM        MOSUNNY   75  68  78 NE5       30.10R                  
PROVINCETOWN   MOSUNNY   75  65  70 E6        30.10S                  
NANTUCKET      MOSUNNY   74  71  91 SW3       30.10R                  
MARTHAS VNYRD  MOSUNNY   74  69  85 CALM      30.09R                  
$$
 
MAZALL-221300-
CENTRAL AND WESTERN MASSACHUSETTS
  
CITY           SKY/WX    TMP DP  RH WIND       PRES   REMARKS
WORCESTER      MOSUNNY   71  56  58 NE3       30.13R                  
6HR MIN TEMP:  66; 6HR MAX TEMP:  71;                                

FITCHBURG      SUNNY    N/A N/A N/A CALM      30.12R                  
ORANGE         MOSUNNY   66  61  84 CALM      30.12S                  
SPRINGFIELD    MOSUNNY   68  65  91 NE3       30.08R                  
WESTFIELD      MOSUNNY   69  65  86 NE3       30.10S                  
NORTH ADAMS    PTSUNNY   64  64 100 CALM      30.12S                  
PITTSFIELD     FOG       63  62  97 CALM      30.12S VSB 1/4          
$$
 
RIZALL-221300-
RHODE ISLAND
  
CITY           SKY/WX    TMP DP  RH WIND       PRES   REMARKS
PROVIDENCE     PTSUNNY   74  65  73 NE3       30.10R                  
6HR MIN TEMP:  66; 6HR MAX TEMP:  74;                                

NEWPORT        MOSUNNY   74  65  73 N5        30.09R                  
BLOCK ISLAND   MOSUNNY   73  69  87 CALM        N/A                   
SMITHFIELD     MOSUNNY   72  66  81 N3        30.12R                  
WESTERLY       MOSUNNY   74  68  81 CALM      30.09R                  
$$
 
CTZALL-221300-
CONNECTICUT
  
CITY           SKY/WX    TMP DP  RH WIND       PRES   REMARKS
BRADLEY INTL   PTSUNNY   72  65  78 N5        30.10S                  
6HR MIN TEMP:  66; 6HR MAX TEMP:  72;                                

HARTFORD       PTSUNNY   73  66  78 N5        30.08S                  
PLAINVILLE     MOSUNNY   70  66  88 NE5       30.09S                  
BRIDGEPORT     PTSUNNY   75  69  81 NE3       30.08S                  
DANBURY        MOSUNNY   73  67  81 CALM      30.11R                  
GROTON         MOSUNNY   74  70  87 SE3       30.08R                  
NEW HAVEN      PTSUNNY   76  70  82 CALM      30.09R                  
CHESTER        MOSUNNY   75  70  83 CALM      30.10S                  
MERIDEN        MOSUNNY   72  64  76 CALM      30.09R                  
WILLIMANTIC    MOSUNNY   69  66  90 CALM      30.10S                  
OXFORD         MOSUNNY   71  65  81 CALM      30.12R                  
$$

MEZ002-015-021-024-NHZ003-005-008-011-012-014-VTZ005-008-221300-
NORTHERN NEW ENGLAND
  
CITY           SKY/WX    TMP DP  RH WIND       PRES   REMARKS
PORTLAND ME    MOSUNNY   68  58  70 CALM      30.11R                  
6HR MIN TEMP:  56; 6HR MAX TEMP:  68;                                

BANGOR ME      SUNNY     65  54  67 W8        30.08R                  
CONCORD NH     MOSUNNY   65  58  78 CALM      30.12R                  
MANCHESTER NH  MOSUNNY   70  57  63 CALM      30.10R                  
NASHUA NH      SUNNY     67  64  90 NW3       30.12R                  
PORTSMOUTH NH  PTSUNNY   69  59  69 CALM      30.10R                  
JAFFREY NH     SUNNY     66  59  78 CALM      30.14R                  
KEENE NH       SUNNY     63  58  83 CALM      30.13R                  
BURLINGTON VT  MOSUNNY   66  59  78 VRB3      30.09S                  
MT. WASHINGTON FOG       45  45 100 W40         N/A  VSB 0            
$$

NYZ052-076-221300-
EASTERN NEW YORK
  
CITY           SKY/WX    TMP DP  RH WIND       PRES   REMARKS
ALBANY         PTSUNNY   68  65  90 CALM      30.11R                  
6HR MIN TEMP:  64; 6HR MAX TEMP:  69;                                

NEW YORK CITY  PTSUNNY   76  67  73 NE8       30.07R                  
6HR MIN TEMP:  76; 6HR MAX TEMP:  78;                                

$$
 
ANZALL-221300-
MARINE OBSERVATIONS
  
STATION/POSITION TIME  TEMP    WIND        PRES    VSBY  WAVE
                       AIR SEA DIR/SP/G                  HT/PER
                 (UTC) (F)     (DEG/KT/KT) (MB)    (MI)  (FT/S)
BOSTON BUOY      1150   66 65  350/  2/  2 1019.7R         1/ 7
BUZZARDS BAY     1100   70     270/  5/  5 1018.8R
NANTUCKET SOUND  1150   75 76  280/  4/  6 1018.6R         1
MASS BAY-STELLWA 1004   63 61   10/  6/  6 1018.8R  1 7/8  1/ 8
ISLE OF SHOALS   1100   68      10/  4/  5 1018.4R
S OF BLOCK IS    1156      72                N/A           3/ 7
$$

......................KEY.........................
  SKY/WX - SKY CONDITION/PRESENT WEATHER
  TMP    - TEMPERATURE IN FAHRENHEIT
  DWPT   - DEWPOINT IN FAHRENHEIT
  RH     - RELATIVE HUMIDITY IN PERCENT
  WIND   - DIRECTION AND SPEED IN MPH
  PRES   - MEAN SEA LEVEL PRESSURE IN INCHES OF HG
  WCI    - WIND CHILL INDEX
  VSB    - VISIBILITY IN MILES
  HX     - HEAT INDEX
  TC     - TEMPERATURE IN CELSIUS
  VRB    - VARIABLE WIND DIRECTION
  N/A    - NOT AVAILABLE
  
      

Other recent Regional Weather Roundups

Thu Jul 25, 10:10am EDT

Thu Jul 25, 9:10am EDT

Thu Jul 25, 8:10am EDT

Thu Jul 25, 7:10am EDT

Thu Jul 25, 6:10am EDT

Thu Jul 25, 5:10am EDT

Thu Jul 25, 4:10am EDT

Thu Jul 25, 3:10am EDT

Thu Jul 25, 2:10am EDT

Thu Jul 25, 1:10am EDT

Thu Jul 25, 12:10am EDT

Wed Jul 24, 11:10pm EDT

Wed Jul 24, 10:10pm EDT

Wed Jul 24, 9:10pm EDT

Wed Jul 24, 8:10pm EDT

Wed Jul 24, 7:10pm EDT

Wed Jul 24, 6:10pm EDT

Wed Jul 24, 5:10pm EDT

Wed Jul 24, 4:10pm EDT

Wed Jul 24, 3:10pm EDT

Wed Jul 24, 2:10pm EDT

Wed Jul 24, 1:10pm EDT

Wed Jul 24, 12:10pm EDT

Wed Jul 24, 11:10am EDT

Wed Jul 24, 10:10am EDT

Wed Jul 24, 9:10am EDT

Wed Jul 24, 8:10am EDT

Wed Jul 24, 7:10am EDT

Wed Jul 24, 6:10am EDT

Wed Jul 24, 5:10am EDT

Wed Jul 24, 4:10am EDT

Wed Jul 24, 3:10am EDT

Wed Jul 24, 2:10am EDT

Wed Jul 24, 1:10am EDT

Wed Jul 24, 12:10am EDT

Tue Jul 23, 11:10pm EDT

Tue Jul 23, 10:10pm EDT

Tue Jul 23, 9:10pm EDT

Tue Jul 23, 8:10pm EDT

Tue Jul 23, 7:10pm EDT

Tue Jul 23, 6:10pm EDT

Tue Jul 23, 5:10pm EDT

Tue Jul 23, 4:10pm EDT

Tue Jul 23, 3:10pm EDT

Tue Jul 23, 2:10pm EDT

Tue Jul 23, 1:10pm EDT

Tue Jul 23, 12:10pm EDT

Tue Jul 23, 11:10am EDT

Tue Jul 23, 10:10am EDT

Tue Jul 23, 10:10am EDT

Tue Jul 23, 9:10am EDT

Tue Jul 23, 8:10am EDT

Tue Jul 23, 7:10am EDT

Tue Jul 23, 6:10am EDT

Tue Jul 23, 5:10am EDT

Tue Jul 23, 4:10am EDT

Tue Jul 23, 3:10am EDT

Tue Jul 23, 2:10am EDT

Tue Jul 23, 1:10am EDT

Tue Jul 23, 12:10am EDT

Mon Jul 22, 11:10pm EDT

Mon Jul 22, 10:10pm EDT

Mon Jul 22, 9:10pm EDT

Mon Jul 22, 8:10pm EDT

Mon Jul 22, 7:10pm EDT

Mon Jul 22, 6:10pm EDT

Mon Jul 22, 5:10pm EDT

Mon Jul 22, 4:10pm EDT

Mon Jul 22, 3:10pm EDT

Mon Jul 22, 2:10pm EDT

Mon Jul 22, 1:10pm EDT

Mon Jul 22, 12:10pm EDT

Mon Jul 22, 11:10am EDT

Mon Jul 22, 10:10am EDT

Mon Jul 22, 9:10am EDT

Mon Jul 22, 7:10am EDT

Mon Jul 22, 6:10am EDT

Mon Jul 22, 5:10am EDT

Mon Jul 22, 4:10am EDT

Mon Jul 22, 3:10am EDT

Mon Jul 22, 2:10am EDT

Mon Jul 22, 1:10am EDT

Mon Jul 22, 12:10am EDT

Sun Jul 21, 11:10pm EDT

Sun Jul 21, 10:10pm EDT

Sun Jul 21, 9:10pm EDT

Sun Jul 21, 8:10pm EDT

Sun Jul 21, 7:10pm EDT

Sun Jul 21, 6:10pm EDT

Sun Jul 21, 5:10pm EDT

Sun Jul 21, 4:10pm EDT

Sun Jul 21, 3:10pm EDT

Sun Jul 21, 2:10pm EDT

Sun Jul 21, 1:10pm EDT

Sun Jul 21, 12:10pm EDT

Sun Jul 21, 11:10am EDT

Sun Jul 21, 10:10am EDT

Sun Jul 21, 9:10am EDT

Sun Jul 21, 8:10am EDT

Sun Jul 21, 7:10am EDT

Sun Jul 21, 6:10am EDT

Sun Jul 21, 5:10am EDT

Sun Jul 21, 4:10am EDT

Sun Jul 21, 3:10am EDT

Sun Jul 21, 2:10am EDT

Sun Jul 21, 1:10am EDT

Sun Jul 21, 12:10am EDT

Sat Jul 20, 11:10pm EDT

Sat Jul 20, 10:10pm EDT

Sat Jul 20, 9:10pm EDT

Sat Jul 20, 8:10pm EDT

Sat Jul 20, 7:10pm EDT

Sat Jul 20, 6:10pm EDT

Sat Jul 20, 5:10pm EDT

Sat Jul 20, 4:10pm EDT

Sat Jul 20, 3:10pm EDT

Sat Jul 20, 2:10pm EDT

Sat Jul 20, 1:10pm EDT

Sat Jul 20, 12:10pm EDT

Sat Jul 20, 11:10am EDT

Sat Jul 20, 10:10am EDT

Sat Jul 20, 9:10am EDT

Sat Jul 20, 8:10am EDT

Sat Jul 20, 7:10am EDT

Sat Jul 20, 6:10am EDT

Sat Jul 20, 5:10am EDT

Sat Jul 20, 4:10am EDT

Sat Jul 20, 3:10am EDT

Sat Jul 20, 2:10am EDT

Sat Jul 20, 1:10am EDT

Sat Jul 20, 12:10am EDT

Fri Jul 19, 11:10pm EDT

Fri Jul 19, 10:10pm EDT

Fri Jul 19, 9:10pm EDT

Fri Jul 19, 8:10pm EDT

Fri Jul 19, 7:10pm EDT

Fri Jul 19, 6:10pm EDT

Fri Jul 19, 5:10pm EDT

Fri Jul 19, 4:10pm EDT

Fri Jul 19, 3:10pm EDT

Fri Jul 19, 2:10pm EDT

Fri Jul 19, 1:10pm EDT

Fri Jul 19, 12:10pm EDT

Fri Jul 19, 11:10am EDT

Fri Jul 19, 10:10am EDT

Fri Jul 19, 9:10am EDT

Fri Jul 19, 8:10am EDT

Fri Jul 19, 7:10am EDT

Fri Jul 19, 6:10am EDT

Fri Jul 19, 5:10am EDT

Fri Jul 19, 4:10am EDT

Fri Jul 19, 3:10am EDT

Fri Jul 19, 2:10am EDT

Fri Jul 19, 1:10am EDT

Fri Jul 19, 12:10am EDT

Thu Jul 18, 11:10pm EDT

Thu Jul 18, 10:10pm EDT

Thu Jul 18, 9:10pm EDT

Thu Jul 18, 8:10pm EDT

Thu Jul 18, 7:10pm EDT

Thu Jul 18, 6:10pm EDT

Thu Jul 18, 5:10pm EDT

Thu Jul 18, 4:10pm EDT

Thu Jul 18, 3:10pm EDT

Thu Jul 18, 2:10pm EDT

Thu Jul 18, 1:10pm EDT

Thu Jul 18, 12:10pm EDT

Thu Jul 18, 11:10am EDT